TDRS 10

Last updated on Aug. 14, 2020, 5:30 a.m. UTC

1 27566U 02055A   20226.15783775  .00000090  00000-0  00000+0 0  9991
2 27566   7.0017  53.3525 0006123 311.6119 202.7540  1.00269193 64821
UTC
Height (km)
Latitude
Longitude
Inclination
Orbital Period
UTC large
Height (km)
Speed (km/s)
/
Latitude / Longitude
Inclination (degrees)
Orbital Period (minutes)
Azimuth
Elevation
Range (km)
Doppler Factor
iOS Compass Heading
iOS Angle

Next 30 passes for location: Hong Kong

Rise time Rise Azimuth (degrees) Set time Set Azimuth (degrees) Duration Max altitude (degrees)

No matching passes for this satellites